Ramona, CA

8:49 PM PST on February 12, 2016 (GMT -0800)
Ramona

Weather History for KRNM - December, 2012

Change the Weather History Date:

Wednesday, December 5, 2012

  Actual Average Record
Temperature  
Mean Temperature 56 °F 50 °F  
Max Temperature 74 °F 65 °F 90 °F (1979)
Min Temperature 38 °F 35 °F 20 °F (2011)
Degree Days  
Heating Degree Days 9 15  
Month to date heating degree days 34 72  
Since 1 July heating degree days 354 483  
Cooling Degree Days 0 0  
Month to date cooling degree days 0 0  
Year to date cooling degree days 1035 850  
Growing Degree Days 5 (Base 50)    
Moisture  
Dew Point 46 °F    
Average Humidity 77    
Maximum Humidity 100    
Minimum Humidity 53    
Precipitation  
Precipitation 0.00 in 0.05 in 0.85 in (1987)
Month to date precipitation 0.03 0.26  
Year to date precipitation 8.47 14.07  
Since 1 July precipitation 1.55  
Snow  
Snow 0.00 in - - ()
Month to date snowfall 0.0  
Year to date snowfall 0.0  
Snow Depth 0.00 in    
Sea Level Pressure  
Sea Level Pressure 30.08 in    
Wind  
Wind Speed 4 mph (NW)    
Max Wind Speed 30 mph    
Max Gust Speed 31 mph    
Visibility 3 miles    
Events Fog    
T = Trace of Precipitation, MM = Missing Value Source: NWS Daily Summary

Daily Weather History Graph

Daily Weather History Graph

Search for Another Location

Airport or City:

Trip Planner

Search our weather history database for the weather conditions in past years. The results will help you decide how hot, cold, wet, or windy it might be!

Date:

Astronomy

Dec. 05, 2012 Rise Set
Actual Time 6:36 AM PST 4:40 PM PST
Civil Twilight 6:09 AM PST 5:07 PM PST
Nautical Twilight 5:38 AM PST 5:38 PM PST
Astronomical Twilight 5:08 AM PST 6:08 PM PST
Moon 11:18 PM PST (12/5) 11:16 AM PST (12/5)
Length of Visible Light 10h 58m
Length of Day
10h 04m
Waning Gibbous, 58% of the Moon is Illuminated
Dec 5
Waning Gibbous
Dec 6
Last Quarter
Dec 13
New
Dec 19
First Quarter
Dec 28
Full

Hourly Weather History & Observations

Time (PST) Temp. Windchill Dew Point Humidity Pressure Visibility Wind Dir Wind Speed Gust Speed Precip Events Conditions
12:53 AM 48.0 °F - 46.9 °F 96% 30.13 in 0.2 mi Calm Calm - N/A Fog Fog
1:53 AM 45.0 °F - 45.0 °F 100% 30.12 in 0.2 mi Calm Calm - N/A Fog Fog
2:06 AM 44.6 °F - 44.6 °F 100% 30.13 in 1.0 mi Calm Calm - N/A   Mist
2:19 AM 44.6 °F - 44.6 °F 100% 30.13 in 0.8 mi Calm Calm - N/A   Mist
2:22 AM 44.6 °F - 44.6 °F 100% 30.13 in 1.2 mi Calm Calm - N/A   Scattered Clouds
2:28 AM 42.8 °F - 42.8 °F 100% 30.13 in 0.8 mi Calm Calm - N/A   Mist
2:39 AM 42.8 °F - 42.8 °F 100% 30.13 in 0.2 mi Calm Calm - N/A Fog Fog
2:53 AM 39.9 °F 37.8 °F 39.9 °F 100% 30.12 in 0.2 mi West 3.5 mph - N/A Fog Fog
3:53 AM 45.0 °F 43.5 °F 44.1 °F 97% 30.11 in 0.2 mi NE 3.5 mph - N/A Fog Fog
4:16 AM 44.6 °F 43.1 °F 44.6 °F 100% 30.11 in 0.5 mi East 3.5 mph - N/A Fog Fog
4:38 AM 44.6 °F 43.1 °F 44.6 °F 100% 30.11 in 1.2 mi East 3.5 mph - N/A   Overcast
4:46 AM 44.6 °F 43.1 °F 44.6 °F 100% 30.11 in 3.0 mi ENE 3.5 mph - N/A   Overcast
4:51 AM 44.6 °F - 44.6 °F 100% 30.11 in 1.8 mi Calm Calm - N/A   Overcast
4:53 AM 44.1 °F 42.5 °F 44.1 °F 100% 30.10 in 0.8 mi East 3.5 mph - N/A   Mist
6:36 AM 39.2 °F - 39.2 °F 100% 30.12 in 1.2 mi North - - N/A   Partly Cloudy
6:44 AM 37.4 °F - 37.4 °F 100% 30.12 in 3.0 mi North - - N/A   Partly Cloudy
6:53 AM 39.9 °F - 39.0 °F 97% 30.12 in 1.0 mi North - - N/A   Mist
7:09 AM 41.0 °F 32.5 °F 39.2 °F 93% 30.12 in 1.0 mi SSW 17.3 mph 51.8 mph N/A   Mist
7:12 AM 42.8 °F 32.9 °F 41.0 °F 93% 30.12 in 2.0 mi SSW 26.5 mph 51.8 mph N/A   Partly Cloudy
7:19 AM 42.8 °F - 42.8 °F 100% 30.13 in 7.0 mi North - - N/A   Partly Cloudy
7:53 AM 45.0 °F - 44.1 °F 97% 30.13 in 10.0 mi North - - N/A   Clear
8:53 AM 57.0 °F - 48.9 °F 74% 30.13 in 10.0 mi Calm Calm - N/A   Clear
9:53 AM 66.0 °F - 42.1 °F 42% 30.11 in 10.0 mi Calm Calm - N/A   Clear
10:53 AM 73.0 °F - 41.0 °F 31% 30.08 in 10.0 mi Variable 4.6 mph - N/A   Clear
11:53 AM 66.9 °F - 52.0 °F 59% 30.06 in 10.0 mi NW 6.9 mph - N/A   Clear
12:53 PM 71.1 °F - 52.0 °F 51% 30.04 in 10.0 mi WNW 10.4 mph - N/A   Clear
1:53 PM 70.0 °F - 51.1 °F 51% 30.02 in 10.0 mi WNW 8.1 mph - N/A   Clear
2:53 PM 69.1 °F - 53.1 °F 57% 30.02 in 10.0 mi WNW 9.2 mph - N/A   Clear
3:53 PM 66.9 °F - 52.0 °F 59% 30.01 in 10.0 mi WNW 9.2 mph - N/A   Partly Cloudy
4:53 PM 59.0 °F - 53.1 °F 81% 30.02 in 10.0 mi Calm Calm - N/A   Partly Cloudy
5:53 PM 54.0 °F - 50.0 °F 86% 30.04 in 7.0 mi Calm Calm - N/A   Clear
6:53 PM 50.0 °F - 50.0 °F 100% 30.05 in 4.0 mi West 4.6 mph - N/A   Clear
7:53 PM 50.0 °F - 48.9 °F 96% 30.04 in 1.8 mi Calm Calm - N/A   Clear
8:08 PM 48.2 °F - 48.2 °F 100% 30.04 in 3.0 mi Calm Calm - N/A   Clear
8:22 PM 48.2 °F - 46.4 °F 93% 30.04 in 2.0 mi Calm Calm - N/A   Clear
8:34 PM 48.2 °F - 46.4 °F 93% 30.05 in 4.0 mi Calm Calm - N/A   Partly Cloudy
8:48 PM 48.2 °F - 46.4 °F 93% 30.05 in 1.8 mi Calm Calm - N/A   Mostly Cloudy
8:53 PM 48.0 °F - 46.9 °F 96% 30.04 in 1.2 mi Calm Calm - N/A   Mostly Cloudy
9:02 PM 48.2 °F - 46.4 °F 93% 30.05 in 3.0 mi Calm Calm - N/A   Overcast
9:13 PM 48.2 °F - 46.4 °F 93% 30.06 in 2.5 mi Calm Calm - N/A   Overcast
9:23 PM 46.4 °F - 46.4 °F 100% 30.06 in 1.0 mi Calm Calm - N/A   Mist
9:28 PM 46.4 °F - 46.4 °F 100% 30.06 in 0.2 mi Calm Calm - N/A Fog Fog
9:40 PM 44.6 °F - 44.6 °F 100% 30.06 in 0.5 mi Calm Calm - N/A Fog Fog
9:44 PM 44.6 °F - 44.6 °F 100% 30.06 in 0.2 mi Calm Calm - N/A Fog Fog
9:53 PM 46.0 °F - 45.0 °F 96% 30.05 in 0.2 mi Calm Calm - N/A Fog Fog
10:04 PM 46.4 °F - 44.6 °F 93% 30.06 in 0.2 mi Calm Calm - N/A Fog Fog
10:37 PM 46.4 °F - 46.4 °F 100% 30.06 in 0.2 mi Calm Calm - N/A Fog Fog
10:42 PM 46.4 °F - 46.4 °F 100% 30.05 in 1.0 mi Calm Calm - N/A   Mist
10:49 PM 46.4 °F - 46.4 °F 100% 30.05 in 1.5 mi Calm Calm - N/A   Overcast
10:53 PM 46.9 °F - 46.9 °F 100% 30.03 in 2.0 mi Calm Calm - N/A   Overcast
10:58 PM 46.4 °F - 46.4 °F 100% 30.06 in 1.0 mi Calm Calm - N/A   Overcast
11:03 PM 44.6 °F - 44.6 °F 100% 30.05 in 0.2 mi Calm Calm - N/A Fog Fog
11:53 PM 46.9 °F - 46.0 °F 97% 30.01 in 0.2 mi Calm Calm - N/A Fog Fog